STARLINK-31097, 58718

Orbit data source: Space-Track

STARLINK-31097, 58718 is a payload satellite owned by SpaceX/Seattle (US) in LEO that was launched on Wed, 03 Jan 2024 UTC via an FALCON 9 launch vehicle from the Air Force Western Test Range (AFWTR). Payload-class satellites include a variety of spacecraft equipped with specific instruments for various scientific and technological missions. These include communications satellites like Starlink; space stations such as the ISS; scientific satellites like the Hubble; Earth observation satellites from companies like Planet Labs, Umbra, and HawkEye 360; GPS; miniature CubeSats for education and research; and military/defense satellites.

Loading next visibility...
Identifier
58718, 2024-002P
Orbit
LEO
Country
Flag of USUS
Related business
Manufacturer
SpaceX/Seattle
Mission
Operational Commercial Communications
Bus & Motor
STARLINK V2M, Unknown motor
Mass
730 kg wet, ~700 kg dry
Launch date (UTC)
2024-01-03 (2 years ago)
Launch vehicle
FALCON 9
Launch site
Air Force Western Test Range (AFWTR)
Object type
Payload
Rocket body
Debris
Shape & HBR
Box + 2 Pan, 17.7 m
Radar Cross Section
33.884 m², Large (>1 m²)

Expand to show TLE details & history
Last TLE update: 2 days ago

TLE from 2 days ago
0 STARLINK-31097
1 58718U 24002P   26171.22272589 -.00001467  00000-0 -37425-4 0  9996
2 58718  53.1607 113.6741 0001071 101.6531 258.4590 15.30187841137712
Epoch: 2026-06-20T05:20Z
TLE epoch observation values (Epoch: 2026-06-20T05:20:43.516Z)
Latitude
-0.00004°
Longitude
125.05231°
Altitude
476.298 km
Speed
7.629 km/s
True Right ascension
07h 34m 41s
True Declination
0° 00' 00"
Sunlit
Object was in daylight at epoch
Visualization orbit readout
Latitude
Unknown
Longitude
Unknown
Altitude
Unknown
Speed
Unknown
Apparent Right ascension
Unknown
Apparent Declination
Unknown
Sunlit
N/A
Visualization observer readout
Local Sidereal Time
21:36:56
Azimuth
Unknown
Elevation
Unknown
Doppler factor
Unknown
Orbital elements
Apogee altitude
476.242 km
Perigee altitude
474.774 km
Semi-major axis
6,853.645 km
Eccentricity
0.00011
Inclination
53.1607°
RAAN
113.6741°
Arg. of periapsis
101.6531°
True anomaly
258.44698°
Mean anomaly
258.459°
Eccentric anomaly
258.45299°
Mean motion
3.82526 °/min
Orbital period
94.11 mins
BSTAR
-0.000037425
Loading maneuver chart data...
Computing Atmospheric mass density...
Loading historical data...
Loading historical data...
Loading historical data...
Loading historical data...
Loading historical data...
Loading historical data...
Loading historical data...

Documentation

Showing up to 5 results
|